Location: Augirein
(42.9320°N, 0.9181°E)
Time: 20:03:20
(UTC+00:00)

Cosmos 1408 - Pass Details

Date: 20 June 2021
Orbit: 466 x 492 km, 82.6° (Epoch: 23 July)

Event Time Altitude Azimuth Distance (km) Brightness Sun altitude
Exits shadow 00:18:49 47° 65° (ENE) 661 3.3 -23.5°
Drops below altitude 10° 00:21:55 10° 18° (NNE) 1,691 6.3 -23.4°
Sets 00:24:04 0° 14° (NNE) 2,580 7.7 -23.4°
